This is the latest recevied weather packets stored in our database for station/object K5BOU. If no packets are shown the sender has not sent any weather packets the latest 10 day(s).
| Time | Temp. | Humidity | Pressure | Rain* | Wind** | Luminosity | Snow |
|---|---|---|---|---|---|---|---|
| 1777727686 | 13.89° C | 97% | 1017.9 hPa | 0 mm | - | 165 W/m² | - |
| 1777727383 | 13.89° C | 98% | 1017.5 hPa | 0 mm | - | 143 W/m² | - |
| 1777727080 | 13.33° C | 99% | 1017.2 hPa | 0 mm | - | 124 W/m² | - |
| 1777726778 | 13.33° C | 99% | 1017.2 hPa | 0 mm | - | 110 W/m² | - |
| 1777726474 | 12.78° C | 99% | 1017.4 hPa | 0 mm | - | 91 W/m² | - |
| 1777726171 | 12.78° C | 99% | 1017.1 hPa | 0 mm | - | 63 W/m² | - |
| 1777725868 | 12.22° C | 99% | 1017 hPa | 0 mm | - | 53 W/m² | - |
| 1777725566 | 12.22° C | 99% | 1017.1 hPa | 0 mm | - | 33 W/m² | - |
| 1777725263 | 12.22° C | 99% | 1016.9 hPa | 0 mm | - | 29 W/m² | - |
| 1777724960 | 11.67° C | 99% | 1016.9 hPa | 0 mm | - | 27 W/m² | - |
| 1777724656 | 11.67° C | 99% | 1016.8 hPa | 0 mm | - | 26 W/m² | - |
| 1777724354 | 11.67° C | 99% | 1016.8 hPa | 0 mm | - | 23 W/m² | - |
| 1777724051 | 11.67° C | 99% | 1016.6 hPa | 0 mm | - | 19 W/m² | - |
| 1777723749 | 11.67° C | 99% | 1016.6 hPa | 0 mm | - | 16 W/m² | - |
| 1777723444 | 11.67° C | 99% | 1016.4 hPa | 0 mm | - | 13 W/m² | - |
| 1777723142 | 11.67° C | 99% | 1016.3 hPa | 0 mm | - | 10 W/m² | - |
| 1777722839 | 11.67° C | 99% | 1016.5 hPa | 0 mm | - | 8 W/m² | - |
| 1777722535 | 11.67° C | 99% | 1016.3 hPa | 0 mm | - | 5 W/m² | - |
| 1777722232 | 11.67° C | 99% | 1016.2 hPa | 0 mm | - | 3 W/m² | - |
| 1777721929 | 11.67° C | 99% | 1016.2 hPa | 0 mm | - | 0 W/m² | - |
| 1777721627 | 11.67° C | 99% | 1016.3 hPa | 0 mm | - | 0 W/m² | - |
| 1777721325 | 11.67° C | 99% | 1016 hPa | 0 mm | - | 0 W/m² | - |
| 1777721022 | 11.67° C | 99% | 1016.1 hPa | 0 mm | - | 0 W/m² | - |
| 1777720720 | 11.67° C | 99% | 1016.1 hPa | 0 mm | - | 0 W/m² | - |
| 1777720417 | 11.67° C | 99% | 1015.9 hPa | 0 mm | - | 0 W/m² | - |
* Rain latest hour (hover to see other rain measurements)
** Current wind speed in m/s (hover to see current wind gust speed)